This is the latest recevied weather packets stored in our database for station/object IU3OVK-13. If no packets are shown the sender has not sent any weather packets the latest 1 day(s).
| Time | Temp. | Humidity | Pressure | Rain* | Wind** | Luminosity | Snow |
|---|---|---|---|---|---|---|---|
| 1778102889 | 12.22° C | 99% | 1004.9 hPa | - | - | - | - |
| 1778091106 | 14.44° C | 99% | 1003.2 hPa | - | - | - | - |
| 1778089866 | 15° C | 99% | 1003.3 hPa | - | - | - | - |
| 1778086145 | 15° C | 99% | 1002.8 hPa | - | - | - | - |
| 1778081804 | 15.56° C | 99% | 1002.8 hPa | - | - | - | - |
| 1778077463 | 13.89° C | 99% | 1003.1 hPa | - | - | - | - |
| 1778073742 | 15.56° C | 99% | 1003.6 hPa | - | - | - | - |
| 1778073122 | 15.56° C | 99% | 1004 hPa | - | - | - | - |
| 1778065680 | 18.33° C | 99% | 1004.1 hPa | - | - | - | - |
| 1778064440 | 15.56° C | 99% | 1004.7 hPa | - | - | - | - |
| 1778062580 | 14.44° C | 99% | 1004.5 hPa | - | - | - | - |
| 1778061959 | 13.89° C | 99% | 1004.8 hPa | - | - | - | - |
| 1778056998 | 13.33° C | 99% | 1004.3 hPa | - | - | - | - |
| 1778056378 | 12.78° C | 99% | 1004.1 hPa | - | - | - | - |
| 1778052657 | 12.22° C | 99% | 1004.9 hPa | - | - | - | - |
| 1778052037 | 12.78° C | 99% | 1004.8 hPa | - | - | - | - |
| 1778050176 | 12.22° C | 99% | 1004.6 hPa | - | - | - | - |
| 1778048316 | 12.22° C | 99% | 1004.4 hPa | - | - | - | - |
| 1778047696 | 12.22° C | 99% | 1004.5 hPa | - | - | - | - |
| 1778032127 | 12.22° C | 99% | 1006.3 hPa | - | - | - | - |
| 1778031507 | 11.67° C | 99% | 1006.8 hPa | - | - | - | - |
| 1778030887 | 12.22° C | 99% | 1006.7 hPa | - | - | - | - |
| 1778030267 | 11.67° C | 99% | 1007 hPa | - | - | - | - |
| 1778028406 | 11.67° C | 99% | 1006.7 hPa | - | - | - | - |
| 1778027166 | 12.22° C | 99% | 1006.5 hPa | - | - | - | - |
* Rain since midnight (hover to see other rain measurements)
** Current wind speed in m/s (hover to see current wind gust speed)